DW9210 Weather Reports


Display with metric or nautical units.
time (UTC)temp
F
wind
direction
speed
MPH
gust
MPH
rain 1hr
in
rain 24hr
in
rain mn
in
humidity
%
barometer
mb
20260503194503 63 216 5.0 13.0 0.00 0.00 0.00 45 1017.2
20260503194003 63 223 5.0 15.0 0.00 0.00 0.00 40 1017.1
20260503193503 63 235 5.0 15.0 0.00 0.00 0.00 40 1017.2
20260503193003 62 223 5.0 15.0 0.00 0.00 0.00 37 1017.3
20260503192503 63 208 5.0 15.0 0.00 0.00 0.00 40 1017.3
20260503192003 62 209 4.0 13.0 0.00 0.00 0.00 39 1017.4
20260503191503 63 210 4.0 13.0 0.00 0.00 0.00 39 1017.6
20260503191003 62 200 4.0 10.0 0.00 0.00 0.00 46 1017.6
20260503190524 62 198 5.0 10.0 0.00 0.00 0.00 38 1017.7
20260503190003 62 207 5.0 12.0 0.00 0.00 0.00 41 1017.8
20260503185503 62 221 4.0 12.0 0.00 0.00 0.00 42 1017.8
20260503185003 62 225 4.0 15.0 0.00 0.00 0.00 45 1017.8
20260503184503 62 221 5.0 15.0 0.00 0.00 0.00 39 1017.9
20260503184024 62 224 4.0 10.0 0.00 0.00 0.00 43 1017.9
20260503183524 61 230 5.0 17.0 0.00 0.00 0.00 42 1018.0
20260503183003 61 218 6.0 17.0 0.00 0.00 0.00 40 1018.0
20260503182503 61 203 5.0 12.0 0.00 0.00 0.00 39 1018.1
20260503182024 62 213 5.0 11.0 0.00 0.00 0.00 42 1018.2
20260503181504 62 216 4.0 12.0 0.00 0.00 0.00 40 1018.2
20260503181003 61 201 4.0 12.0 0.00 0.00 0.00 45 1018.4
20260503180503 61 201 4.0 11.0 0.00 0.00 0.00 43 1018.5
20260503180003 60 215 3.0 11.0 0.00 0.00 0.00 40 1018.6
20260503175503 60 205 3.0 9.0 0.00 0.00 0.00 42 1018.6
20260503175003 60 185 3.0 8.0 0.00 0.00 0.00 42 1018.6
20260503174503 60 190 3.0 9.0 0.00 0.00 0.00 44 1018.8
20260503174003 60 209 4.0 12.0 0.00 0.00 0.00 39 1018.8
20260503173503 60 214 4.0 12.0 0.00 0.00 0.00 38 1019.0
20260503173003 60 195 4.0 12.0 0.00 0.00 0.00 42 1019.0
20260503172503 60 203 4.0 12.0 0.00 0.00 0.00 41 1019.2
20260503172003 60 208 4.0 12.0 0.00 0.00 0.00 41 1019.3
20260503171503 60 207 3.0 11.0 0.00 0.00 0.00 44 1019.3
20260503171024 59 194 4.0 8.0 0.00 0.00 0.00 42 1019.4
20260503170503 60 187 3.0 8.0 0.00 0.00 0.00 38 1019.6
20260503150503 57 199 2.0 11.0 0.00 0.00 0.00 48 1020.5
20260503131003 48 220 3.0 8.0 0.00 0.00 0.00 68 1020.5
20260503130503 48 209 2.0 6.0 0.00 0.00 0.00 71 1020.5
20260503110524 29 160 0.0 1.0 0.00 0.00 0.00 95 1019.8
20260503090503 30 0 0.0 0.0 0.00 0.00 0.00 93 1019.2
20260503081503 31 0 0.0 0.0 0.00 0.00 0.00 92 1018.9
20260503081003 31 0 0.0 0.0 0.00 0.00 0.00 92 1018.9
20260503080524 31 0 0.0 0.0 0.00 0.00 0.00 92 1018.9
20260503072524 32 0 0.0 0.0 0.00 0.00 0.00 92 1018.8
20260503072003 32 0 0.0 0.0 0.00 0.00 0.00 91 1018.8
20260503071524 32 0 0.0 0.0 0.00 0.00 0.00 91 1018.8
20260503071003 32 0 0.0 0.0 0.00 0.00 0.00 91 1018.8
20260503070503 33 0 0.0 0.0 0.00 0.00 0.00 91 1018.8
20260503055003 36 0 0.0 0.0 0.00 0.00 0.00 86 1019.0
20260503054503 36 0 0.0 0.0 0.00 0.00 0.00 85 1019.0
20260503054024 37 0 0.0 0.0 0.00 0.00 0.00 84 1019.0
20260503053503 37 0 0.0 0.0 0.00 0.00 0.00 83 1018.9
20260503053003 38 351 0.0 1.0 0.00 0.00 0.00 83 1019.0
20260503052503 38 351 0.0 1.0 0.00 0.00 0.00 81 1019.0
20260503052003 38 0 0.0 0.0 0.00 0.00 0.00 81 1019.0
20260503051503 39 351 0.0 1.0 0.00 0.00 0.00 80 1019.1
20260503051003 39 351 0.0 1.0 0.00 0.00 0.00 81 1019.1
20260503050503 39 351 0.0 1.0 0.00 0.00 0.00 79 1019.1
20260503050003 40 351 0.0 1.0 0.00 0.00 0.00 78 1019.1
20260503045503 40 351 0.0 1.0 0.00 0.00 0.00 75 1019.1
20260503045024 41 351 0.0 1.0 0.00 0.00 0.00 74 1019.1
20260503044503 41 351 0.0 2.0 0.00 0.00 0.00 73 1019.1
20260503044003 42 351 1.0 3.0 0.00 0.00 0.00 72 1019.1
20260503043503 42 352 1.0 3.0 0.00 0.00 0.00 69 1019.1
20260503043003 42 358 1.0 3.0 0.00 0.00 0.00 68 1019.1
20260503042503 42 6 2.0 3.0 0.00 0.00 0.00 68 1019.0
20260503042003 43 12 2.0 3.0 0.00 0.00 0.00 67 1019.0
20260503041503 43 16 2.0 3.0 0.00 0.00 0.00 67 1019.0
20260503041003 43 19 2.0 4.0 0.00 0.00 0.00 67 1018.9
20260503040503 43 18 2.0 4.0 0.00 0.00 0.00 67 1018.9
20260503040003 44 15 2.0 5.0 0.00 0.00 0.00 67 1018.9
20260503035503 44 9 2.0 5.0 0.00 0.00 0.00 67 1018.9
20260503035003 44 2 2.0 4.0 0.00 0.00 0.00 67 1018.9
20260503034524 44 4 2.0 5.0 0.00 0.00 0.00 67 1018.9
20260503034003 43 357 3.0 6.0 0.00 0.00 0.00 68 1018.8
20260503033503 43 347 3.0 7.0 0.00 0.00 0.00 72 1018.8
20260503033003 43 345 3.0 7.0 0.00 0.00 0.00 71 1018.8
20260503032503 42 340 3.0 5.0 0.00 0.00 0.00 72 1018.7
20260503032003 42 339 3.0 5.0 0.00 0.00 0.00 74 1018.7
20260503031503 42 338 3.0 5.0 0.00 0.00 0.00 75 1018.8
20260503031003 41 332 2.0 5.0 0.00 0.00 0.00 74 1018.7
20260503030503 41 330 2.0 5.0 0.00 0.00 0.00 76 1018.7
20260503030003 41 333 2.0 5.0 0.00 0.00 0.00 77 1018.7
20260503025503 40 336 2.0 4.0 0.00 0.00 0.00 78 1018.6
20260503025003 40 337 2.0 3.0 0.00 0.00 0.00 80 1018.6
20260503024524 40 332 1.0 4.0 0.00 0.00 0.00 82 1018.4
20260503024003 41 325 1.0 4.0 0.00 0.00 0.00 83 1018.4
20260503023503 41 327 1.0 3.0 0.00 0.00 0.00 83 1018.3
20260503023003 41 331 2.0 3.0 0.00 0.00 0.00 83 1018.3
20260503022524 41 334 2.0 3.0 0.00 0.00 0.00 83 1018.2
20260503022003 42 331 1.0 3.0 0.00 0.00 0.00 84 1018.2
20260503021503 42 323 1.0 3.0 0.00 0.00 0.00 84 1018.1
20260503021003 42 317 0.0 3.0 0.00 0.00 0.00 84 1018.0
20260503020524 43 303 0.0 1.0 0.00 0.00 0.00 84 1017.9
20260503020003 43 305 0.0 1.0 0.00 0.00 0.00 84 1017.9
20260503015503 43 303 1.0 2.0 0.00 0.00 0.00 82 1017.8
20260503015025 44 302 0.0 2.0 0.00 0.00 0.00 82 1017.7
20260503014503 44 300 0.0 1.0 0.00 0.00 0.00 80 1017.7
20260503014003 44 0 0.0 0.0 0.00 0.00 0.00 80 1017.6
20260503013503 45 300 0.0 1.0 0.00 0.00 0.00 80 1017.5
20260503013003 45 300 0.0 1.0 0.00 0.00 0.00 80 1017.4
20260503012503 45 301 0.0 1.0 0.00 0.00 0.00 78 1017.4
20260503012003 46 300 0.0 2.0 0.00 0.00 0.00 77 1017.4
20260503011503 46 300 0.0 2.0 0.00 0.00 0.00 78 1017.3
20260503011003 46 301 0.0 2.0 0.00 0.00 0.00 79 1017.2
20260503010524 46 300 0.0 2.0 0.00 0.00 0.00 78 1017.1
20260503010024 46 299 0.0 2.0 0.00 0.00 0.00 76 1017.1
20260503005503 46 301 0.0 2.0 0.00 0.00 0.00 75 1017.1
20260503005003 47 301 0.0 2.0 0.00 0.00 0.00 73 1017.0
20260503004524 47 0 0.0 0.0 0.00 0.00 0.00 71 1017.0
20260503004003 48 299 0.0 2.0 0.00 0.00 0.00 70 1016.9
20260503003503 48 295 1.0 2.0 0.00 0.00 0.00 67 1016.9
20260503003003 48 291 2.0 2.0 0.00 0.00 0.00 65 1016.9
20260503002524 48 293 2.0 3.0 0.00 0.00 0.00 64 1016.8
20260503002003 49 293 2.0 3.0 0.00 0.00 0.00 62 1016.7
20260503001503 49 287 2.0 3.0 0.00 0.00 0.00 62 1016.6
20260503001003 49 285 2.0 4.0 0.00 0.00 0.00 62 1016.5
20260503000503 49 284 3.0 4.0 0.00 0.00 0.00 62 1016.5
20260503000003 50 284 3.0 4.0 0.00 0.00 0.00 61 1016.5
20260502235503 50 288 3.0 5.0 0.00 0.00 0.00 61 1016.4
20260502235003 50 292 3.0 5.0 0.00 0.00 0.00 61 1016.3
20260502234524 50 297 3.0 6.0 0.00 0.00 0.00 62 1016.3
20260502234003 51 295 3.0 6.0 0.00 0.00 0.00 59 1016.3
20260502233524 51 295 3.0 6.0 0.00 0.00 0.00 59 1016.2
20260502233003 52 301 3.0 6.0 0.00 0.00 0.00 59 1016.3
20260502232524 53 301 3.0 5.0 0.00 0.00 0.00 57 1016.3
20260502232024 53 303 2.0 4.0 0.00 0.00 0.00 61 1016.3
20260502231524 53 310 2.0 4.0 0.00 0.00 0.00 60 1016.2
20260502231003 52 301 2.0 5.0 0.00 0.00 0.00 59 1016.1
20260502230503 53 301 3.0 5.0 0.00 0.00 0.00 61 1016.2
20260502230003 53 303 3.0 5.0 0.00 0.00 0.00 61 1016.3
20260502225524 53 298 3.0 5.0 0.00 0.00 0.00 59 1016.3
20260502225024 53 293 3.0 5.0 0.00 0.00 0.00 61 1016.3
20260502224503 53 294 3.0 5.0 0.00 0.00 0.00 60 1016.3
20260502224003 53 298 2.0 4.0 0.00 0.00 0.00 60 1016.4
20260502223524 53 289 2.0 4.0 0.00 0.00 0.00 62 1016.4
20260502223003 53 296 3.0 7.0 0.00 0.00 0.00 60 1016.4
20260502222503 53 294 3.0 7.0 0.00 0.00 0.00 57 1016.5
20260502222024 54 283 4.0 7.0 0.00 0.00 0.00 58 1016.4
20260502221524 54 288 4.0 7.0 0.00 0.00 0.00 58 1016.4
20260502221003 54 291 4.0 11.0 0.00 0.00 0.00 60 1016.3
20260502220503 54 281 5.0 12.0 0.00 0.00 0.00 57 1016.3
20260502220003 54 285 5.0 12.0 0.00 0.00 0.00 55 1016.2
20260502215503 54 296 4.0 8.0 0.00 0.00 0.00 57 1016.3
20260502215003 54 295 4.0 12.0 0.00 0.00 0.00 55 1016.2
20260502214503 54 291 4.0 12.0 0.00 0.00 0.00 55 1016.2
20260502214003 54 296 5.0 8.0 0.00 0.00 0.00 55 1016.2
20260502213503 55 304 5.0 10.0 0.00 0.00 0.00 55 1016.2
20260502213003 55 305 5.0 10.0 0.00 0.00 0.00 53 1016.0
20260502212503 54 303 5.0 8.0 0.00 0.00 0.00 57 1016.1
20260502212003 54 307 5.0 8.0 0.00 0.00 0.00 51 1016.1
20260502211503 54 304 5.0 9.0 0.00 0.00 0.00 55 1016.2
20260502211024 54 292 5.0 10.0 0.00 0.00 0.00 58 1016.1
20260502210503 54 292 5.0 10.0 0.00 0.00 0.00 54 1016.2
20260502210003 54 294 5.0 11.0 0.00 0.00 0.00 51 1016.2
20260502205503 54 290 5.0 11.0 0.00 0.00 0.00 53 1016.2
20260502205003 54 290 4.0 10.0 0.00 0.00 0.00 55 1016.2
20260502204503 54 291 5.0 10.0 0.00 0.00 0.00 59 1016.3
20260502204003 54 302 4.0 8.0 0.00 0.00 0.00 58 1016.2
20260502203524 54 321 4.0 9.0 0.00 0.00 0.00 56 1016.2
20260502203003 54 334 4.0 9.0 0.00 0.00 0.00 55 1016.3
20260502202524 53 318 4.0 8.0 0.00 0.00 0.00 60 1016.3
20260502202003 53 304 4.0 9.0 0.00 0.00 0.00 58 1016.3
20260502201503 53 309 4.0 9.0 0.00 0.00 0.00 62 1016.4
20260502201003 52 315 4.0 8.0 0.00 0.00 0.00 60 1016.5
20260502200503 52 326 4.0 8.0 0.00 0.00 0.00 58 1016.5
20260502200003 53 326 5.0 9.0 0.00 0.00 0.00 57 1016.5
20260502195503 53 324 5.0 12.0 0.00 0.00 0.00 58 1016.5
20260502195003 54 319 5.0 12.0 0.00 0.00 0.00 56 1016.4